x

9449880 - Friday Harbor, Wa (frdw1) Weather Station

12:36 - Sun 19th Apr 2015 All times are PDT. -7 hours from GMT.

  • Wind
    2mph, 3mph gusts
  • Sea Temp 49°f
  • Aire Temp 44°f
  • Sea Pressure 1024.5mb
  • 9449880 - Friday Harbor, Wa
  • 9449880 - Friday Harbor, Wa

More Historic Weather Station data

Upgrade to MSW Pro to gain access to the past 30 days of data for over 8000 Wavebouys and Weather Stations around the globe.

Join Pro

Comparision Forecast

View Surf forecast
   
dom 04/19 12:36 2 3 mph 1024.5mb 49f 44f
12:30 3 5 mph 1024.6mb 49f 44f
12:24 2 5 mph 1024.6mb 49f 45f
12:18 2 3 mph 1024.6mb 49f 45f
12:12 2
mph
1024.7mb 49f 44f
12:06 2 3 mph 1024.7mb 49f 44f
12:00 2 3 mph 1024.8mb 49f 45f
sáb 04/18 11:30  -  mph 1024.7mb 49f -
11:12  -  mph 1024.7mb 49f -
10:36 1 2 mph 1024.8mb 49f 47f
10:30  -  2 mph 1024.8mb 49f 47f
10:24 2 3 mph 1024.8mb 49f 47f
10:18 5 6 mph 1024.8mb 49f 47f
10:12 1
mph
1024.8mb 49f 48f
10:06  -  1 mph 1024.8mb 49f 48f
10:00 1 2 mph 1024.9mb 49f 48f
9:36  -  2 mph 1025.1mb 49f 49f
9:30  -  2 mph 1025.2mb 49f 49f
9:24  -  1 mph 1025.2mb 49f 49f
9:18  -  1 mph 1025.2mb 49f 49f
9:12  -  1 mph 1025.2mb 49f 50f
9:06 1
mph
1025.2mb 49f 50f
9:00 1 2 mph 1025.1mb 49f 50f
8:36  -  1 mph 1025.1mb 49f 51f
8:30  -  1 mph 1025.1mb 49f 52f
8:24  -  2 mph 1025.1mb 49f 54f
8:18  -  2 mph 1025.1mb 49f 53f
8:12  -  2 mph 1025.1mb 49f 54f
8:06  -  1 mph 1025.1mb 49f 54f
8:00  -  2 mph 1025.1mb 49f 54f
7:36 1 5 mph 1025.1mb 49f 55f
7:30 1 5 mph 1025.1mb 49f 55f
7:24  -  3 mph 1025.2mb 49f 55f
7:18 1 5 mph 1025.2mb 49f 56f
7:12  -  3 mph 1025.3mb 49f 56f
7:06 1 5 mph 1025.2mb 49f 57f
7:00 1 5 mph 1025.2mb 49f 57f
6:36 3 5 mph 1025.3mb 49f 56f
6:30 2 5 mph 1025.4mb 49f 57f
6:24 2 6 mph 1025.4mb 49f 57f
6:18 3 5 mph 1025.4mb 49f 57f
6:12 2 3 mph 1025.4mb 49f 57f
6:06 2 3 mph 1025.5mb 49f 58f
6:00 2 5 mph 1025.6mb 49f 58f
5:36 3 6 mph 1025.8mb 49f 59f
5:30 3 6 mph 1025.9mb 49f 58f
5:24 5 7 mph 1025.9mb 49f 58f
5:18 5 6 mph 1026mb 49f 58f
5:12 3 6 mph 1026.1mb 49f 58f
5:06 3 7 mph 1026.1mb 49f 58f
5:00 5 7 mph 1026.3mb 49f 58f
4:36 3 7 mph 1026.4mb 49f 57f
4:30 2 6 mph 1026.4mb 49f 57f
4:24 3 8 mph 1026.5mb 49f 58f
4:18 3 8 mph 1026.5mb 49f 58f
4:12 3 8 mph 1026.6mb 49f 58f
4:06 6 8 mph 1026.7mb 49f 58f
4:00 3 8 mph 1026.8mb 49f 57f
3:36 3 9 mph 1027.2mb 49f 57f
3:30 2 7 mph 1027.3mb 49f 57f
3:24 2 6 mph 1027.4mb 49f 57f
3:18 2 6 mph 1027.5mb 49f 57f
3:12 2 6 mph 1027.5mb 49f 57f
3:06 3 7 mph 1027.5mb 49f 57f
3:00 3 9 mph 1027.6mb 49f 56f
2:36 2 5 mph 1027.8mb 49f 57f
2:30 3 8 mph 1027.8mb 49f 56f
2:24 3 7 mph 1027.8mb 49f 57f
2:18 2 6 mph 1027.9mb 49f 56f
2:12 2 7 mph 1028mb 49f 56f
2:06 3 6 mph 1028mb 49f 56f
2:00 2 6 mph 1028.1mb 49f 56f
1:36 5 8 mph 1028.3mb 49f 55f
1:30 3 7 mph 1028.3mb 49f 56f
1:24 2 9 mph 1028.3mb 49f 55f
1:18 2 8 mph 1028.4mb 49f 56f
1:12 3 8 mph 1028.5mb 49f 55f
1:06 2 8 mph 1028.6mb 49f 56f
1:00 3 7 mph 1028.6mb 49f 55f
12:36 2 8 mph 1028.8mb 49f 54f
12:30 6 10 mph 1028.8mb 49f 54f
12:24 8 13 mph 1028.9mb 49f 53f
12:18 6 13 mph 1028.9mb 49f 54f
12:12 7 10 mph 1028.9mb 49f 54f
12:06 7 13 mph - - 53f
12:00 8 13 mph - - 53f
11:36 8 11 mph 1029.1mb 49f 53f
11:30 7 10 mph 1029.2mb 49f 53f
11:24 7 13 mph 1029.2mb 49f 53f
11:18 10 14 mph 1029.2mb 49f 52f
11:12 8 13 mph 1029.2mb 49f 52f
11:06 8 14 mph 1029.3mb 49f 53f
11:00 8 11 mph 1029.5mb 49f 52f
10:36 7 11 mph 1029.5mb 49f 53f
10:30 8 11 mph 1029.5mb 49f 52f
10:24 7 13 mph 1029.5mb 49f 52f
10:18 7 13 mph 1029.5mb 49f 53f
10:12 7 10 mph 1029.5mb 49f 52f
10:06 8 13 mph 1029.5mb 49f 52f
10:00 7 13 mph 1029.5mb 49f 52f
9:36 6 9 mph 1029.6mb 49f 52f
9:30 6 10 mph 1029.6mb 49f 52f
9:24 3 8 mph 1029.6mb 49f 52f
9:18 5 7 mph 1029.6mb 49f 52f
9:12 2 6 mph 1029.5mb 49f 52f
9:06 2 6 mph 1029.4mb 49f 52f
9:00 2 7 mph 1029.4mb 49f 52f
8:36 2 5 mph 1029.3mb 49f 52f
8:30 3 7 mph 1029.2mb 49f 52f
8:24 1 3 mph 1029.3mb 49f 52f
8:18 2 7 mph 1029.3mb 49f 51f
8:12 3 8 mph 1029.3mb 49f 51f
8:06 3 6 mph 1029.3mb 49f 51f
8:00 5 8 mph 1029.4mb 49f 51f
7:36 2 5 mph 1029.1mb 49f 51f
7:30 2 6 mph 1029.1mb 49f 51f
7:24 3 6 mph 1029mb 49f 51f
7:18 2 5 mph 1029mb 49f 51f
7:12 2 7 mph 1029.1mb 49f 51f
7:06 2 6 mph 1029.1mb 49f 50f
7:00 1 5 mph 1029.1mb 49f 50f
6:36 1 3 mph 1028.8mb 49f 48f
6:30 2 8 mph 1028.8mb 49f 49f
6:24 2 6 mph 1028.7mb 49f 49f
6:18 2 8 mph 1028.7mb 49f 49f
6:12 2 5 mph 1028.6mb 49f 49f
6:06 1 5 mph 1028.5mb 49f 49f
6:00 2 3 mph 1028.5mb 49f 49f
5:36 2 6 mph 1028.1mb 49f 48f
5:30 2 6 mph 1028.2mb 49f 48f
5:24  -  3 mph 1028.3mb 49f 48f
5:18 1 3 mph 1028.4mb 49f 48f
5:12  -  3 mph 1028.4mb 49f 48f
5:06 2 5 mph 1028.4mb 49f 48f
5:00 1 3 mph 1028.4mb 49f 48f
4:36 2 5 mph 1028.4mb 49f 48f
4:30  -  3 mph 1028.4mb 49f 49f
4:24  -  2 mph 1028.2mb 49f 49f
4:18  -  3 mph 1028.2mb 49f 49f
4:12 1 3 mph 1028.2mb 49f 49f
4:06 1 6 mph 1028.1mb 49f 49f
4:00  -  2 mph 1028.1mb 49f 48f
3:36  -  2 mph 1028.3mb 49f 45f
3:30 1 3 mph 1028.3mb 49f 45f
3:24  -  2 mph 1028.2mb 49f 46f
3:18  -  1 mph 1028.1mb 49f 46f
3:12  -  2 mph 1028.1mb 49f 45f
3:06  -  2 mph 1028mb 49f 46f
3:00 1 2 mph 1028mb 49f 46f
2:36  -  2 mph 1027.8mb 49f 47f
2:30 1 2 mph 1027.8mb 49f 47f
2:24 1
mph
1027.8mb 49f 47f
2:18  -  2 mph 1027.7mb 49f 47f
2:12  -  2 mph 1027.7mb 49f 48f
2:06  -  mph 1027.6mb 49f 48f
2:00  -  1 mph 1027.6mb 49f 48f
1:54  -  2 mph 1027.7mb 49f 48f
1:48 1 2 mph 1027.7mb 49f 47f
1:36 1 2 mph 1027.7mb 49f 48f
1:30 1 3 mph 1027.6mb 49f 49f
1:24 2 3 mph 1027.5mb 49f 47f
1:18 3 5 mph 1027.5mb 49f 47f
1:12 1 2 mph 1027.3mb 49f 50f
1:06 1 2 mph 1027.3mb 49f 48f
1:00 2 9 mph 1027.4mb 49f 47f
12:54 2 8 mph 1027.2mb 49f 51f
12:48 1 3 mph 1027.1mb 49f 49f
12:36 5 6 mph 1027.2mb 49f 47f
12:30  -  3 mph 1027.2mb 49f 48f
12:24  -  1 mph 1027.1mb 49f 47f
12:18  -  3 mph 1027.2mb 49f 48f
12:12 1 2 mph 1027.1mb 49f 49f
12:06 1 3 mph 1027mb 49f 49f
12:00  -  2 mph 1027.2mb 49f 49f
vie 04/17 11:54 1 2 mph - - 50f
11:48 2 3 mph 1027mb 49f 50f
11:24  -  mph 1026.9mb 49f -
11:12  -  mph 1026.8mb 49f -
10:54  -  mph 1027mb 49f -
10:48  -  mph 1026.9mb 49f -
10:24  -  mph 1026.3mb 49f -
10:18  -  mph 1026.2mb 49f -
10:12  -  mph 1026.4mb 49f -
10:06  -  mph 1026.4mb 49f -
10:00  -  mph 1026.3mb 49f -
9:54  -  mph 1026.1mb 49f -
9:48  -  mph 1026.1mb 49f -
9:36 1 3 mph 1026.2mb 49f 52f
9:30 2 6 mph 1026.1mb 49f 51f
9:24 3 7 mph 1026.1mb 49f 50f
9:18 3 7 mph 1025.9mb 49f 53f
9:12  -  3 mph 1025.8mb 49f 53f
9:06  -  2 mph - - 52f
9:00 2 3 mph - - 51f
8:54 1 3 mph 1025.7mb 49f 53f
8:48  -  1 mph 1025.7mb 49f 52f
8:36  -  1 mph 1025.6mb 49f 53f
8:30 2 3 mph 1025.6mb 49f 54f
8:24 2 3 mph 1025.4mb 49f 53f
8:18 3
mph
1025.4mb 49f 53f
8:12 1 3 mph 1025.3mb 49f 53f
8:06  -  1 mph 1025.2mb 49f 55f
8:00  -  1 mph 1025.3mb 49f 55f
7:54  -  2 mph 1025.2mb 49f 55f
7:48 1 3 mph 1025.2mb 49f 56f
7:36  -  2 mph 1025.1mb 49f 56f
7:30 2 6 mph 1025mb 49f 56f
7:24 6 7 mph 1025mb 49f 56f
7:18 7 8 mph 1025mb 49f 57f
7:12 5 6 mph 1025mb 49f 57f
7:06 2 5 mph 1025mb 49f 56f
7:00 1 2 mph 1025mb 49f 58f
6:54 1
mph
1025mb 49f 58f
6:48  -  mph 1025mb 49f 59f
6:36  -  2 mph 1024.9mb 49f 60f
6:30  -  2 mph 1024.9mb 49f 60f
6:24  -  2 mph 1024.8mb 49f 60f
6:18  -  1 mph 1024.8mb 49f 60f
6:12 1 3 mph 1024.8mb 49f 60f
6:06  -  2 mph 1024.8mb 49f 60f
6:00 2 7 mph 1024.9mb 49f 60f
5:54 3 6 mph 1024.9mb 49f 60f
5:48 3 5 mph 1024.8mb 49f 60f
5:36 3 6 mph 1024.8mb 49f 60f
5:30 5 6 mph 1024.8mb 49f 60f
5:24 3 6 mph 1024.8mb 49f 60f
5:18 5 7 mph 1024.8mb 49f 60f
5:12 5 6 mph 1024.8mb 49f 60f
5:06 6 7 mph 1024.8mb 49f 60f
5:00 5 9 mph 1024.8mb 49f 60f
4:54 6 8 mph 1024.8mb 49f 60f
4:48 6 8 mph 1024.8mb 49f 59f
4:36 6 8 mph 1024.9mb 49f 59f
4:30 5 8 mph 1024.9mb 49f 59f
4:24 6 9 mph 1024.9mb 49f 59f
4:18 6 8 mph 1024.9mb 49f 60f
4:12 6 9 mph 1024.9mb 49f 60f
4:06 2 6 mph 1024.9mb 49f 60f
4:00 3 6 mph 1024.9mb 49f 60f
3:54 2 7 mph 1025mb 49f 60f
3:48 3 9 mph 1024.9mb 49f 59f
3:36 3 9 mph 1024.9mb 49f 59f
3:30 5 9 mph 1025mb 49f 59f
3:24 6 11 mph 1024.9mb 49f 60f
3:18 6 7 mph 1024.8mb 49f 59f
3:12 5 6 mph 1024.8mb 49f 58f
3:06 5
mph
1024.8mb 49f 57f
3:00 5
mph
- - 57f
2:54 3 6 mph 1024.8mb 49f 57f
2:48 5 6 mph 1024.8mb 49f 56f
2:36 3 5 mph 1024.8mb 49f 58f
2:30 5 6 mph 1024.8mb 49f 58f
2:24 6 7 mph 1024.8mb 49f 58f
2:18 5 7 mph 1024.8mb 49f 58f
2:12 6 7 mph 1024.9mb 49f 58f
2:06 2 5 mph 1024.9mb 49f 58f
2:00 3 5 mph 1024.9mb 49f 58f
1:54 5 6 mph 1024.9mb 49f 58f
1:48 6 8 mph 1024.9mb 49f 58f
1:36 6 8 mph 1024.9mb 49f 57f
1:30 3 6 mph 1024.9mb 49f 58f
1:24 3 5 mph 1024.9mb 49f 57f
1:18 3 6 mph 1024.9mb 49f 56f
1:12 3 5 mph 1024.9mb 49f 56f
1:06 3
mph
1024.9mb 49f 56f
1:00 3 5 mph 1024.9mb 49f 55f
12:54 5 6 mph 1025mb 49f 55f
12:48 2 3 mph 1025mb 49f 56f
12:36 3
mph
1025.1mb 49f 56f
12:30 2 3 mph 1025.2mb 49f 56f
12:24 2 8 mph 1025.2mb 49f 57f
12:18 6 8 mph 1025.2mb 49f 56f
12:12 5 11 mph 1025.2mb 49f 57f
12:06 8 10 mph 1025.2mb 49f 56f
12:00 5 10 mph 1025.2mb 49f 57f
11:54 6 11 mph 1025.1mb 49f 56f
11:48 9 13 mph 1025.1mb 49f 56f
11:36 10 13 mph 1025.2mb 49f 55f
11:30 10 13 mph 1025.2mb 49f 54f
11:24 9 11 mph 1025.1mb 49f 54f
11:18 10 13 mph 1025.1mb 49f 54f
11:12 9 10 mph 1025.2mb 49f 54f
11:06 9 10 mph 1025mb 49f 53f
11:00 9
mph
1025.1mb 49f 52f
10:54 9
mph
1025.1mb 49f 52f
10:48 8 10 mph 1025.1mb 49f 52f
10:36 9 11 mph 1025mb 49f 52f
10:30 9 10 mph 1025mb 49f 52f
10:24 8 11 mph 1025mb 49f 53f
10:18 9 13 mph 1024.9mb 49f 52f
10:12 9 10 mph 1024.8mb 49f 51f
10:06 8 9 mph 1024.9mb 49f 51f
10:00 7 8 mph 1025mb 49f 51f
9:54 6 8 mph 1025.1mb 49f 50f
9:48 5
mph
1024.9mb 49f 49f
9:36 6 7 mph 1024.8mb 49f 48f
9:30 5 6 mph 1024.7mb 49f 48f
9:24 5 7 mph 1024.8mb 49f 48f
9:18 6 7 mph 1024.8mb 49f 49f
9:12 5 6 mph 1024.8mb 49f 49f
9:06 2 5 mph 1024.8mb 49f 49f
9:00  -  2 mph 1024.9mb 49f 49f
8:54 1 7 mph 1025mb 49f 49f
8:48 5 9 mph 1024.8mb 49f 48f
8:36 2 6 mph 1024.7mb 49f 48f
8:30  -  6 mph 1024.4mb 49f 47f
8:24 5 6 mph 1024.4mb 49f 47f
8:18  -  2 mph 1024.5mb 49f 47f
8:12 1 2 mph 1024.3mb 49f 47f
8:06 1 2 mph 1024mb 49f 46f
8:00  -  2 mph 1024.2mb 49f 46f
7:54  -  1 mph 1024.5mb 49f 46f
7:48  -  1 mph 1024.5mb 49f 46f
7:24  -  mph 1024.6mb 49f -
7:18  -  mph 1024.6mb 49f -
7:12  -  mph 1024.6mb 49f -
7:06  -  mph 1024.7mb 49f -
7:00  -  mph 1024.6mb 49f -
6:54  -  mph 1024.6mb 49f -
6:48  -  mph 1024.6mb 49f -
6:36 1 3 mph 1024.8mb 49f 44f
6:30 1 2 mph 1024.8mb 49f 44f
6:24 2 3 mph 1024.8mb 49f 44f
6:18  -  1 mph 1024.8mb 49f 44f
6:12  -  6 mph 1024.8mb 49f 43f
6:06 3 6 mph 1024.7mb 49f 44f
6:00 3
mph
1024.6mb 49f 44f
5:54 1 2 mph 1024.5mb 49f 44f
5:48 2 3 mph 1024.4mb 49f 44f
5:36  -  2 mph 1024.3mb 49f 44f
5:30  -  1 mph 1024.1mb 49f 44f
5:24  -  3 mph 1024.1mb 49f 44f
5:18 3
mph
1024.1mb 49f 44f
5:12 2 3 mph 1024mb 49f 44f
5:06  -  1 mph 1023.8mb 49f 44f
5:00  -  1 mph 1024mb 49f 44f
4:54 1 2 mph 1024mb 49f 44f
4:48 1 2 mph 1024mb 49f 45f
4:36  -  mph - - 44f
4:30  -  mph - - 44f
4:24  -  mph - - 43f
4:18  -  mph - - 43f
4:12  -  mph - - 43f
4:06  -  mph - - 43f
4:00  -  mph - - 43f
3:54  -  mph - - 44f
3:48  -  mph - - 44f
3:36  -  2 mph 1024.1mb 49f 44f
3:30  -  1 mph 1024.1mb 49f 44f
3:24  -  1 mph 1024mb 49f 44f
3:18 1
mph
1024.1mb 49f 44f
3:12  -  1 mph 1024mb 49f 44f
3:06 1 3 mph 1023.9mb 49f 43f
3:00 2 3 mph 1023.8mb 49f 43f
2:54 3 5 mph 1023.9mb 49f 43f
2:48 3
mph
1023.8mb 49f 44f
2:36 1 2 mph 1024mb 49f 44f
2:30 2 3 mph 1024mb 49f 43f
2:24 2 3 mph 1024mb 49f 43f
2:18 3
mph
1024mb 49f 44f
2:12 2
mph
1023.9mb 49f 44f
2:06 1 2 mph 1023.9mb 49f 44f
2:00 2
mph
1024mb 49f 44f
1:54 1 2 mph 1024mb 49f 44f
1:48  -  1 mph 1024.1mb 49f 44f
1:36  -  2 mph 1024.2mb 49f 44f
1:30 1 2 mph 1024.2mb 49f 45f
1:24 1 2 mph 1024.2mb 49f 45f
1:18 1 2 mph 1024.2mb 49f 45f
1:12  -  1 mph 1024.2mb 49f 45f
1:06  -  1 mph 1024.2mb 49f 45f
1:00  -  1 mph 1024.2mb 49f 45f
12:54  -  1 mph 1024.2mb 49f 45f
12:48  -  mph 1024.3mb 49f 45f
12:36 1 2 mph 1024.2mb 49f 45f
12:30 1 2 mph 1024.2mb 49f 45f
12:24 2
mph
1024.2mb 49f 45f
12:18 1 2 mph 1024.2mb 49f 46f
12:12  -  1 mph 1024.2mb 49f 46f
12:06  -  2 mph 1024.3mb 49f 45f
12:00 3
mph
1024.3mb 49f 46f
jue 04/16 11:54 2
mph
1024.3mb 49f 46f
11:48 1 3 mph 1024.3mb 49f 46f
10:36  -  1 mph 1024.3mb 49f 48f
10:30  -  1 mph 1024.3mb 49f 48f
10:24  -  1 mph 1024.3mb 49f 48f
10:18 1 2 mph 1024.3mb 49f 49f
10:12  -  1 mph 1024.3mb 49f 49f
10:06  -  2 mph 1024.3mb 49f 49f
10:00  -  1 mph 1024.3mb 49f 49f
9:54  -  2 mph 1024.2mb 49f 49f
9:48  -  1 mph 1024.2mb 49f 49f
9:24  -  mph 1024.2mb 49f -
9:18  -  mph 1024.3mb 49f -
9:12  -  mph 1024.3mb 49f -
9:06  -  mph 1024.3mb 49f -
9:00  -  mph 1024.2mb 49f -
8:54  -  mph 1024.2mb 49f -
8:48  -  mph 1024.2mb 49f -
8:36  -  2 mph 1024.2mb 49f 52f
8:30  -  2 mph 1024.2mb 49f 52f
8:24  -  1 mph 1024.2mb 49f 53f
8:18  -  2 mph 1024.2mb 49f 54f
8:12  -  2 mph 1024.2mb 49f 54f
8:06  -  2 mph 1024.2mb 49f 54f
8:00  -  2 mph 1024.2mb 49f 55f
7:54  -  2 mph 1024.2mb 49f 55f
7:48  -  2 mph 1024.2mb 49f 55f
7:36 1 3 mph 1024.2mb 49f 55f
7:30  -  2 mph 1024.2mb 49f 55f
7:24  -  2 mph 1024.3mb 49f 56f
7:18  -  2 mph 1024.4mb 49f 56f
7:12 1 2 mph 1024.4mb 49f 56f
7:06  -  2 mph 1024.5mb 49f 57f
7:00 1 3 mph 1024.6mb 49f 56f
6:54 1 3 mph 1024.6mb 49f 57f
6:48 2 3 mph 1024.6mb 49f 57f
6:36 1 3 mph 1024.8mb 49f 57f
6:30  -  2 mph 1024.8mb 49f 58f
6:24 1 3 mph 1024.9mb 49f 58f
6:18  -  5 mph 1025mb 49f 58f
6:12 2 3 mph 1025mb 49f 59f
6:06 2 6 mph 1025.2mb 49f 59f
6:00 1 3 mph 1025.2mb 49f 59f
5:54 1 3 mph 1025.3mb 49f 59f
5:48 1 3 mph 1025.4mb 49f 58f
5:36 1 3 mph 1025.4mb 49f 59f
5:30 1 3 mph 1025.5mb 49f 58f
5:24 2 5 mph 1025.6mb 49f 58f
5:18 3 8 mph 1025.7mb 49f 58f
5:12 3 7 mph 1025.8mb 49f 58f
5:06 3 6 mph 1025.8mb 49f 58f
5:00 2 8 mph 1025.9mb 49f 58f
4:54 6 7 mph 1026mb 49f 57f
4:48 6 7 mph 1026mb 49f 57f
4:36 5 8 mph 1026.1mb 49f 57f
4:30 3 7 mph 1026.2mb 49f 57f
4:24 5 7 mph 1026.3mb 49f 57f
4:18 5 6 mph 1026.3mb 49f 57f
4:12 5 7 mph 1026.4mb 49f 56f
4:06 5 7 mph 1026.4mb 49f 57f
4:00 3 7 mph 1026.5mb 49f 57f
3:54 6 8 mph 1026.6mb 49f 56f
3:48 5 7 mph 1026.7mb 49f 56f
3:36 5 7 mph 1026.9mb 49f 56f
3:30 5 8 mph 1027mb 49f 56f
3:24 3 8 mph 1027mb 49f 56f
3:18 3 8 mph 1027mb 49f 56f
3:12 6 9 mph 1027.1mb 49f 56f
3:06 6 11 mph 1027.1mb 49f 56f
3:00 7 10 mph 1027.2mb 49f 55f
2:54 7 11 mph 1027.2mb 49f 56f
2:48 6 8 mph 1027.3mb 49f 57f
2:36 7 10 mph 1027.3mb 49f 56f
2:30 6 9 mph 1027.4mb 49f 56f
2:24 3 8 mph 1027.5mb 49f 56f
2:18 5 8 mph 1027.6mb 49f 56f
2:12 6 8 mph 1027.7mb 49f 55f
2:06 6 9 mph 1027.8mb 49f 55f
2:00 6 9 mph 1027.8mb 49f 55f
1:54 5 9 mph 1027.9mb 49f 55f
1:48 3 10 mph 1027.9mb 49f 55f
1:36 6 10 mph 1028.1mb 49f 55f
1:30 6 8 mph 1028.2mb 49f 55f
1:24 7 9 mph 1028.2mb 49f 55f
1:18 6 9 mph 1028.2mb 49f 55f
1:12 6 10 mph 1028.3mb 49f 55f
1:06 7 10 mph 1028.4mb 49f 54f
1:00 6 9 mph 1028.4mb 49f 54f
12:54 8 10 mph 1028.5mb 49f 54f
12:48 8 10 mph 1028.5mb 49f 53f
12:36 8 11 mph 1028.8mb 49f 53f
12:30 8 10 mph 1028.9mb 49f 53f
12:24 8 10 mph 1029mb 49f 53f
12:18 8 10 mph 1029mb 49f 53f
12:12 7 10 mph 1029.2mb 49f 52f
12:06 8 9 mph 1029.1mb 49f 52f
12:00 8 9 mph 1029.2mb 49f 51f
11:54 7 8 mph 1029.3mb 49f 51f
11:48 6 7 mph 1029.4mb 49f 50f
11:36 6
mph
1029.6mb 49f 50f
11:30 5
mph
1029.7mb 49f 50f
11:24 5 6 mph 1029.6mb 49f 49f
11:18 5 6 mph 1029.7mb 49f 50f
11:12 5 6 mph 1029.8mb 49f 49f
11:06 5 7 mph 1029.8mb 49f 49f
11:00 3 5 mph 1029.8mb 49f 49f
10:54 2
mph
1029.8mb 49f 50f
10:48 2
mph
1029.8mb 49f 50f
10:36 1 2 mph 1029.9mb 49f 49f
10:30 2
mph
1030mb 49f 49f
10:24 2 3 mph 1030mb 49f 49f
10:18 3
mph
1030mb 49f 48f
10:12 2 3 mph 1030mb 49f 48f
10:06 3 5 mph 1030mb 49f 48f
10:00 3 5 mph 1030mb 49f 48f
9:54 5 6 mph 1030mb 49f 47f
9:48 5
mph
1030mb 49f 47f
9:36 3 5 mph 1030.2mb 49f -
9:30 3 5 mph 1030.2mb 49f -
9:24 3 5 mph 1030.2mb 49f -
9:18 3 5 mph 1030.3mb 49f -
9:12 2 3 mph 1030.4mb 49f -
9:06 3
mph
1030.4mb 49f -
9:00 3
mph
1030.5mb 49f -
8:54 2 3 mph 1030.5mb 49f -
8:48 2 3 mph 1030.6mb 49f -
8:36 3 5 mph 1030.7mb 49f 47f
8:30 3 5 mph 1030.7mb 49f 46f
8:24 3 5 mph 1030.7mb 49f 46f
8:18 3 5 mph 1030.7mb 49f 46f
8:12 3 6 mph 1030.7mb 49f 46f
8:06 5 6 mph 1030.7mb 49f 46f
8:00 3 5 mph 1030.8mb 49f 45f
7:54 3 5 mph 1030.7mb 49f 45f
7:48 2 3 mph 1030.7mb 49f 45f
7:36 3 5 mph 1030.8mb 49f 44f
7:30  -  3 mph 1030.8mb 49f 44f
7:24  -  2 mph 1030.8mb 49f 44f
7:18  -  2 mph 1030.8mb 49f 43f
7:12 1 2 mph 1030.8mb 49f 42f
7:06 1
mph
1030.8mb 49f 44f
7:00  -  1 mph 1030.8mb 49f 44f
6:54  -  mph 1030.7mb 49f 43f
6:48  -  3 mph 1030.6mb 49f 41f
6:36 1 2 mph 1030.6mb 49f 41f
6:30  -  2 mph 1030.6mb 49f 41f
6:24 2 3 mph 1030.7mb 49f 41f
6:18  -  mph 1030.6mb 49f 41f
6:12  -  1 mph 1030.6mb 49f 41f
6:06  -  1 mph 1030.6mb 49f 41f
6:00  -  2 mph 1030.6mb 49f 41f
5:54  -  1 mph 1030.6mb 49f 41f
5:48 1 2 mph 1030.6mb 49f 41f
5:36  -  mph 1030.7mb 49f 41f
5:30  -  1 mph 1030.7mb 49f 41f
5:24 1 2 mph 1030.7mb 49f 41f
5:18 2 3 mph 1030.7mb 49f 41f
5:12 2 3 mph 1030.7mb 49f 41f
5:06 2 3 mph 1030.7mb 49f 41f
5:00  -  2 mph 1030.8mb 49f 41f
4:54  -  3 mph 1030.9mb 49f 41f
4:48 2 5 mph 1030.8mb 49f 41f
4:36  -  2 mph 1030.9mb 49f 41f
4:30 1 2 mph 1031mb 49f 42f
4:24  -  2 mph 1031.1mb 49f 41f
4:18  -  3 mph 1031.2mb 49f 41f
4:12  -  2 mph 1031.2mb 49f 42f
4:06  -  3 mph 1031.1mb 49f 41f
4:00 2 3 mph 1031.2mb 49f 41f
3:54 2
mph
1031.2mb 49f 42f
3:48  -  2 mph 1031.2mb 49f 42f
3:36 1 3 mph 1031.3mb 49f 41f
3:30 2 3 mph 1031.2mb 49f 42f
3:24  -  1 mph 1031.2mb 49f 42f
3:18 1 2 mph 1031.2mb 49f 42f
3:12 1 2 mph 1031.2mb 49f 42f
3:06  -  2 mph 1031.2mb 49f 41f
3:00 2 3 mph 1031.2mb 49f 41f
2:54 2
mph
1031.2mb 49f 41f
2:48 2 3 mph 1031.3mb 49f 41f
2:36  -  mph 1031.3mb 49f 41f
2:30  -  mph 1031.3mb 49f 41f
2:24  -  mph 1031.3mb 49f 42f
2:18  -  mph 1031.4mb 49f 42f
2:12  -  mph 1031.5mb 49f 42f
2:06  -  mph 1031.6mb 49f 41f
2:00  -  mph 1031.7mb 49f 42f
1:54  -  mph 1031.8mb 49f 42f
1:48  -  mph 1031.9mb 49f 42f
1:36  -  1 mph 1032mb 49f 42f
1:30 1 3 mph 1032mb 49f 42f
1:24 3 5 mph 1031.9mb 49f 42f
1:18 2
mph
1031.9mb 49f 42f
1:12 2 3 mph 1031.9mb 49f 42f
1:06 2
mph
1031.9mb 49f 42f
1:00 2
mph
1031.9mb 49f 42f
12:54 1 2 mph 1031.9mb 49f 42f
12:48 2 3 mph 1032mb 49f 42f
12:36  -  2 mph 1032mb 49f 44f
12:30  -  2 mph 1032.1mb 49f 43f
12:24 1 2 mph 1032.1mb 49f 43f
12:18 1 2 mph 1032.2mb 49f 43f
12:12  -  2 mph 1032.2mb 49f 43f
12:06  -  1 mph 1032.2mb 49f 43f
12:00  -  1 mph 1032.2mb 49f 43f
mié 04/15 11:54 1 2 mph 1032.3mb 49f 43f
11:48 1
mph
1032.3mb 49f 44f
11:12  -  mph 1032.3mb 49f -
11:00  -  mph 1032.3mb - -
10:48  -  mph 1032.5mb 49f -
10:36  -  1 mph 1032.5mb 49f 46f
10:30 1
mph
1032.5mb 49f 46f
10:24  -  mph 1032.6mb 49f 46f
10:18  -  mph 1032.7mb 49f 46f
10:12  -  1 mph 1032.6mb 49f 46f
10:06  -  1 mph 1032.7mb 49f 46f
10:00  -  1 mph 1032.7mb 49f 46f
9:54  -  mph 1032.7mb 49f 46f
9:48  -  mph 1032.7mb 49f 46f
9:36  -  1 mph 1032.7mb 49f 47f
9:30  -  1 mph 1032.7mb 49f 47f
9:24 1 2 mph 1032.6mb 49f 47f
9:18 2 3 mph 1032.7mb 49f 47f
9:12 1 3 mph 1032.7mb 49f 47f
9:06  -  3 mph - - 47f
9:00 2
mph
- - 47f
8:54  -  2 mph 1032.6mb 49f 47f
8:48  -  1 mph 1032.6mb 49f 47f
8:36  -  2 mph 1032.6mb 49f 47f
8:30  -  2 mph 1032.6mb 49f 47f
8:24  -  2 mph 1032.6mb 49f 48f
8:18 2
mph
1032.6mb 49f 48f
8:12 2
mph
1032.6mb 49f 48f
8:06 2
mph
1032.6mb 49f 49f
8:00 1 3 mph 1032.6mb 49f 49f
7:54 2 3 mph 1032.6mb 49f 49f
7:48 2 5 mph 1032.6mb 49f 49f
7:36 6 7 mph 1032.6mb 49f 49f
7:30 6 7 mph 1032.6mb 49f 49f
7:24 6 8 mph 1032.5mb 49f 50f
7:18 6 8 mph 1032.5mb 49f 50f
7:12 6 9 mph - - 50f
7:06 5 8 mph 1032.6mb 49f 50f
7:00 3 7 mph 1032.6mb 49f 50f
6:54 3 6 mph 1032.7mb 49f 51f
6:48 3 7 mph 1032.7mb 49f 51f
6:36 5 7 mph 1032.8mb 49f 51f
6:30 5 8 mph 1032.8mb 49f 51f
6:24 6 8 mph 1032.9mb 49f 51f
6:18 6 10 mph 1032.9mb 49f 51f
6:12 6 9 mph 1033mb 49f 51f
6:06 6 9 mph 1033.1mb 49f 51f
6:00 6 9 mph 1033.2mb 49f 51f
5:54 3 10 mph 1033.2mb 49f 51f
5:48 6 7 mph 1033.2mb 49f 51f
5:36 7 10 mph 1033.3mb 49f 51f
5:30 8 10 mph 1033.4mb 49f 51f
5:24 8 9 mph 1033.4mb 49f 51f
5:18 8 10 mph 1033.5mb 49f 51f
5:12 8 10 mph 1033.5mb 49f 51f
5:06 5 7 mph 1033.5mb 49f 51f
5:00 6 7 mph 1033.6mb 49f 51f
4:54 6 9 mph 1033.6mb 49f 51f
4:48 7 10 mph 1033.6mb 49f 51f
4:36 5 6 mph 1033.6mb 49f 51f
4:30 6 7 mph 1033.7mb 49f 51f
4:24 5 9 mph 1033.6mb 49f 51f
4:18 6 8 mph 1033.7mb 49f 51f
4:12 3 6 mph 1033.7mb 49f 51f
4:06 5 7 mph 1033.7mb 49f 51f
4:00 6 7 mph 1033.7mb 49f 51f
3:54 6 8 mph 1033.8mb 49f 51f
3:48 6 7 mph 1033.8mb 49f 51f
3:36 3 7 mph 1033.9mb 49f 51f
3:30 5 6 mph 1034mb 49f 51f
3:24 5 7 mph 1034mb 49f 51f
3:18 6 8 mph 1034mb 49f 51f
3:12 5 7 mph 1034mb 49f 50f
3:06 6 8 mph 1034.1mb 49f 50f
3:00 3 7 mph 1034.2mb 49f 50f
2:54 6 8 mph 1034.2mb 49f 50f
2:48 3 7 mph - - 51f
2:36 7 9 mph 1034.2mb 49f 50f
2:30 6 8 mph 1034.3mb 49f 50f
2:24 6 9 mph 1034.3mb 49f 50f
2:18 7 10 mph - - 50f
2:12 5 10 mph 1034.3mb 49f 50f
2:06 8 13 mph 1034.4mb 49f 49f
2:00 7 10 mph 1034.3mb 49f 49f
1:54 7 11 mph 1034.3mb 49f 49f
1:48 7 9 mph 1034.4mb 49f 49f
1:36 7 10 mph 1034.4mb 49f 49f
1:30 7 10 mph 1034.4mb 49f 49f
1:24 7 9 mph 1034.4mb 49f 49f
1:18 7 10 mph 1034.5mb 49f 49f
1:12 6 10 mph 1034.5mb 49f 49f
1:06 7 10 mph 1034.6mb 49f 48f
1:00 8 11 mph 1034.5mb 49f 48f
12:54 8 15 mph 1034.5mb 49f 48f
12:48 7 11 mph 1034.6mb 49f 48f
12:36 8 11 mph 1034.6mb 49f 48f
12:30 8 11 mph 1034.6mb 49f 48f
12:24 7 10 mph 1034.6mb 49f 48f
12:18 7 11 mph 1034.7mb 49f 48f
12:12 9 11 mph 1034.7mb 49f 48f
12:06 7 10 mph 1034.7mb 49f 48f
12:00 6 10 mph 1034.7mb 49f 48f
11:54 9 11 mph 1034.8mb 49f 48f
11:48 8 10 mph 1034.7mb 49f 48f
11:24  -  mph 1034.8mb 49f -
11:18  -  mph 1034.7mb 49f -
11:12  -  mph 1034.6mb 49f -
11:06  -  mph 1034.6mb 49f -
11:00  -  mph 1034.5mb 49f -
10:54  -  mph 1034.5mb 49f -
10:48  -  mph 1034.5mb 49f -
10:36 10 14 mph 1034.5mb 49f 47f
10:30 9 14 mph 1034.5mb 49f 47f
10:24 8 11 mph 1034.4mb 49f 47f
10:18 9 11 mph 1034.4mb 49f 47f
10:12 7 9 mph - - 48f
10:06 7 11 mph 1034.4mb 49f 47f
10:00 9 13 mph 1034.3mb 49f 47f
9:54 9 13 mph 1034.2mb 49f 47f
9:48 9 11 mph 1034.1mb 49f 47f
9:36 8 10 mph 1034.2mb 49f 46f
9:30 9 10 mph 1034.2mb 49f 46f
9:24 6 8 mph 1034.2mb 49f 46f
9:18 1 3 mph 1034.2mb 49f 47f
9:12 2 3 mph 1034.1mb 49f 46f